Weather History for Glenwood, MN

Change the Weather History Date:

Saturday, June 15, 2013

  Actual Average Record
Temperature  
Mean Temperature 68 °F -  
Max Temperature 78 °F 76 °F 93 °F (1976)
Min Temperature 59 °F 53 °F 40 °F (1968)
Cooling Degree Days 4    
Growing Degree Days 18 (Base 50)    
Moisture  
Dew Point 53 °F    
Average Humidity 61    
Maximum Humidity 100    
Minimum Humidity 30    
Precipitation  
Precipitation 0.00 in - - ()
Sea Level Pressure  
Sea Level Pressure 29.90 in    
Wind  
Wind Speed 8 mph (West)    
Max Wind Speed 17 mph    
Max Gust Speed 21 mph    
Visibility 9 miles    
Events      
Averages and records for this station are not official NWS values.
T = Trace of Precipitation, MM = Missing Value Source: NWS Daily Summary

Daily Weather History Graph

Daily Weather History Graph

Search for Another Location

Airport:

Trip Planner

Search our weather history database for the weather conditions in past years. The results will help you decide how hot, cold, wet, or windy it might be!

Date:

Astronomy

Jun. 15, 2013 Rise Set
Actual Time 5:31 AM CDT 9:12 PM CDT
Civil Twilight 4:53 AM CDT 9:50 PM CDT
Nautical Twilight 4:02 AM CDT 10:41 PM CDT
Astronomical Twilight 2:52 AM CDT 11:51 PM CDT
Moon 12:25 PM CDT (6/15) 12:31 AM CDT (6/15)
Length of Visible Light 16h 57m
Length of Day
15h 41m
Waxing Crescent, 40% of the Moon is Illuminated
Jun 15
Waxing Crescent
Jun 16
First Quarter
Jun 23
Full
Jun 29
Last Quarter
Jul 8
New

Hourly Weather History & Observations

Time (CDT) Temp. Dew Point Humidity Pressure Visibility Wind Dir Wind Speed Gust Speed Precip Events Conditions
12:13 AM 66.2 °F 62.6 °F 88% 29.85 in 10.0 mi SE 10.4 mph - N/A   Clear
12:33 AM 66.2 °F 62.6 °F 88% 29.86 in 10.0 mi SE 8.1 mph - N/A   Clear
12:54 AM 66.2 °F 62.6 °F 88% 29.86 in 10.0 mi SSE 9.2 mph - N/A   Scattered Clouds
1:13 AM 66.2 °F 62.6 °F 88% 29.87 in 10.0 mi SSE 11.5 mph - N/A   Scattered Clouds
1:33 AM 66.2 °F 62.6 °F 88% 29.87 in 10.0 mi SSE 9.2 mph - N/A   Scattered Clouds
1:53 AM 66.2 °F 62.6 °F 88% 29.87 in 10.0 mi SSE 10.4 mph - N/A   Scattered Clouds
2:13 AM 66.2 °F 62.6 °F 88% 29.88 in 10.0 mi SSE 10.4 mph - N/A   Scattered Clouds
2:33 AM 66.2 °F 62.6 °F 88% 29.87 in 10.0 mi South 8.1 mph - N/A   Clear
2:53 AM 64.4 °F 62.6 °F 94% 29.87 in 10.0 mi South 9.2 mph - N/A   Clear
3:13 AM 64.4 °F 62.6 °F 94% 29.86 in 10.0 mi South 6.9 mph - N/A   Clear
3:34 AM 62.6 °F 60.8 °F 94% 29.87 in 10.0 mi SSW 5.8 mph - N/A   Clear
3:53 AM 62.6 °F 60.8 °F 94% 29.87 in 10.0 mi SW 4.6 mph - N/A   Clear
4:13 AM 62.6 °F 60.8 °F 94% 29.87 in 10.0 mi SSW 3.5 mph - N/A   Clear
4:34 AM 62.6 °F 60.8 °F 94% 29.87 in 10.0 mi SW 3.5 mph - N/A   Clear
4:53 AM 60.8 °F 60.8 °F 100% 29.86 in 5.0 mi Calm Calm - N/A   Clear
5:13 AM 59.0 °F 57.2 °F 94% 29.86 in 2.5 mi East 4.6 mph - N/A   Clear
5:34 AM 60.8 °F 59.0 °F 94% 29.89 in 4.0 mi West 4.6 mph - N/A   Clear
5:53 AM 60.8 °F 60.8 °F 100% 29.89 in 3.0 mi Calm Calm - N/A   Scattered Clouds
6:13 AM 60.8 °F 60.8 °F 100% 29.88 in 3.0 mi Calm Calm - N/A   Scattered Clouds
6:34 AM 62.6 °F 60.8 °F 94% 29.89 in 4.0 mi Calm Calm - N/A   Clear
6:53 AM 62.6 °F 60.8 °F 94% 29.92 in 4.0 mi West 5.8 mph - N/A   Clear
7:13 AM 64.4 °F 62.6 °F 94% 29.93 in 5.0 mi West 6.9 mph - N/A   Clear
7:34 AM 66.2 °F 64.4 °F 94% 29.92 in 10.0 mi West 9.2 mph - N/A   Clear
7:53 AM 66.2 °F 64.4 °F 94% 29.91 in 10.0 mi NW 12.7 mph - N/A   Clear
8:13 AM 66.2 °F 60.8 °F 83% 29.90 in 10.0 mi North 13.8 mph 20.7 mph N/A   Clear
8:34 AM 68.0 °F 59.0 °F 73% 29.90 in 10.0 mi North 12.7 mph 16.1 mph N/A   Clear
8:53 AM 68.0 °F 57.2 °F 68% 29.92 in 10.0 mi North 9.2 mph 17.3 mph N/A   Clear
9:13 AM 69.8 °F 55.4 °F 60% 29.93 in 10.0 mi North 9.2 mph - N/A   Clear
9:34 AM 69.8 °F 51.8 °F 53% 29.94 in 10.0 mi North 12.7 mph - N/A   Clear
9:53 AM 69.8 °F 51.8 °F 53% 29.95 in 10.0 mi North 9.2 mph - N/A   Clear
10:13 AM 69.8 °F 51.8 °F 53% 29.95 in 10.0 mi North 8.1 mph - N/A   Clear
10:33 AM 69.8 °F 53.6 °F 56% 29.95 in 10.0 mi North 4.6 mph - N/A   Clear
10:53 AM 69.8 °F 53.6 °F 56% 29.94 in 10.0 mi North 5.8 mph - N/A   Clear
11:13 AM 69.8 °F 51.8 °F 53% 29.94 in 10.0 mi NNW 8.1 mph - N/A   Clear
11:33 AM 71.6 °F 51.8 °F 50% 29.94 in 10.0 mi NNW 11.5 mph - N/A   Clear
11:53 AM 69.8 °F 51.8 °F 53% 29.93 in 10.0 mi NNW 11.5 mph - N/A   Clear
12:13 PM 69.8 °F 48.2 °F 46% 29.93 in 10.0 mi North 12.7 mph 17.3 mph N/A   Clear
12:33 PM 69.8 °F 50.0 °F 49% 29.94 in 10.0 mi North 6.9 mph - N/A   Clear
12:53 PM 69.8 °F 51.8 °F 53% 29.95 in 10.0 mi North 6.9 mph - N/A   Clear
1:14 PM 71.6 °F 50.0 °F 46% 29.95 in 10.0 mi NNW 8.1 mph - N/A   Clear
1:33 PM 71.6 °F 51.8 °F 50% 29.95 in 10.0 mi NNE 6.9 mph - N/A   Clear
1:53 PM 73.4 °F 51.8 °F 47% 29.95 in 10.0 mi NNE 5.8 mph - N/A   Clear
2:14 PM 73.4 °F 48.2 °F 41% 29.94 in 10.0 mi North 8.1 mph - N/A   Clear
2:33 PM 75.2 °F 46.4 °F 36% 29.94 in 10.0 mi North 8.1 mph - N/A   Clear
2:53 PM 75.2 °F 46.4 °F 36% 29.93 in 10.0 mi WNW 5.8 mph - N/A   Clear
3:14 PM 75.2 °F 46.4 °F 36% 29.93 in 10.0 mi West 4.6 mph - N/A   Clear
3:33 PM 75.2 °F 46.4 °F 36% 29.93 in 10.0 mi West 3.5 mph - N/A   Scattered Clouds
3:53 PM 75.2 °F 46.4 °F 36% 29.92 in 10.0 mi WNW 6.9 mph - N/A   Scattered Clouds
4:14 PM 77.0 °F 46.4 °F 34% 29.92 in 10.0 mi WNW 6.9 mph - N/A   Clear
4:33 PM 78.8 °F 46.4 °F 32% 29.91 in 10.0 mi WNW 4.6 mph - N/A   Scattered Clouds
4:53 PM 78.8 °F 44.6 °F 30% 29.91 in 10.0 mi WSW 8.1 mph - N/A   Scattered Clouds
5:13 PM 78.8 °F 46.4 °F 32% 29.90 in 10.0 mi WNW 5.8 mph - N/A   Clear
5:33 PM 78.8 °F 44.6 °F 30% 29.90 in 10.0 mi West 9.2 mph - N/A   Clear
5:53 PM 78.8 °F 44.6 °F 30% 29.89 in 10.0 mi WSW 11.5 mph - N/A   Clear
6:13 PM 78.8 °F 44.6 °F 30% 29.89 in 10.0 mi WNW 11.5 mph - N/A   Clear
6:33 PM 77.0 °F 44.6 °F 32% 29.89 in 10.0 mi West 10.4 mph 19.6 mph N/A   Clear
6:54 PM 77.0 °F 44.6 °F 32% 29.88 in 10.0 mi WNW 17.3 mph - N/A   Clear
7:13 PM 75.2 °F 44.6 °F 34% 29.88 in 10.0 mi West 11.5 mph - N/A   Clear
7:33 PM 75.2 °F 42.8 °F 31% 29.89 in 10.0 mi West 9.2 mph - N/A   Clear
7:53 PM 73.4 °F 44.6 °F 36% 29.89 in 10.0 mi West 6.9 mph - N/A   Clear
8:13 PM 73.4 °F 44.6 °F 36% 29.89 in 10.0 mi West 6.9 mph - N/A   Clear
8:33 PM 71.6 °F 44.6 °F 38% 29.89 in 10.0 mi WSW 5.8 mph - N/A   Clear
8:54 PM 69.8 °F 46.4 °F 43% 29.88 in 10.0 mi SW 4.6 mph - N/A   Clear
9:13 PM 69.8 °F 46.4 °F 43% 29.89 in 10.0 mi SSW 5.8 mph - N/A   Clear
9:33 PM 66.2 °F 46.4 °F 49% 29.89 in 10.0 mi SSW 5.8 mph - N/A   Clear
9:53 PM 64.4 °F 46.4 °F 52% 29.90 in 10.0 mi SW 4.6 mph - N/A   Clear
10:13 PM 64.4 °F 46.4 °F 52% 29.90 in 10.0 mi WSW 6.9 mph - N/A   Clear
10:33 PM 62.6 °F 46.4 °F 55% 29.91 in 10.0 mi WSW 8.1 mph - N/A   Clear
10:54 PM 62.6 °F 46.4 °F 55% 29.92 in 10.0 mi WSW 8.1 mph - N/A   Clear
11:13 PM 62.6 °F 46.4 °F 55% 29.92 in 10.0 mi WSW 8.1 mph - N/A   Clear
11:33 PM 62.6 °F 48.2 °F 59% 29.92 in 10.0 mi WSW 8.1 mph - N/A   Clear
11:54 PM 62.6 °F 48.2 °F 59% 29.92 in 10.0 mi WSW 6.9 mph - N/A   Clear